User: anonymous   Login
Location: Mentone
(34.5413°N, 85.5351°W)
Time: 17:52:12
(UTC-06:00)
Language:

ADEOS Rocket - Orbit

View from above orbital plane
View from above orbital plane
View from above satellite
View from above satellite

Ground track
Ground track

The orbit data is extracted from the following two-line orbital elements,

1 24279U 96046C   18021.24310110  .00000047  00000-0  10106-3 0  9995
2 24279  98.7711 303.4204 0300953  93.1511  57.8412 13.47100271 53602
Epoch (UTC): 21 January 2018 05:50:03
Eccentricity: 0.0300953
inclination: 98.7711°
perigee height: 858 km
apogee height: 1307 km
right ascension of ascending node: 303.4204°
argument of perigee: 93.1511°
revolutions per day: 13.47100271
mean anomaly at epoch: 57.8412°
orbit number at epoch: 5360

The dashed part of the orbit path shows where the satellite is in the earth's shadow,  

DLR